SCP
10 11 11 11 10 10 10 11 11 9 8 8 8 7 6 4 3 3 3 3 3 2 2 1 1 1 1 1 1 1 1 1 1 1 0 0 0 0 0 0 0 1 1
10 11 12 13 13 12 11 10 10 9 8 7 7 6 5 4 4 3 3 3 2 2 2 1 1 1 1 1 1 1 1 1 1 1 0 0 0 0 0 0 0 1 1
9 11 14 18 19 15 11 10 9 9 8 7 6 6 5 4 4 3 3 3 2 2 2 1 1 1 2 2 2 1 1 1 1 1 0 0 0 0 0 0 0 0 0
8 12 15 18 19 16 11 9 10 10 10 8 7 6 5 4 3 3 2 2 2 2 2 1 2 2 2 1 1 1 1 1 1 1 0 0 0 0 0 0 0 0 0
8 12 14 14 14 13 11 10 10 11 11 9 8 7 5 4 3 2 2 2 2 2 2 2 2 2 1 1 1 1 1 1 1 1 1 0 0 0 0 0 0 0 0
7 11 13 13 12 11 12 12 11 11 11 10 9 7 6 5 4 3 2 2 2 2 2 2 2 2 1 1 1 1 1 1 1 1 0 0 0 0 0 0 0 0 0
7 10 13 14 12 11 13 14 12 11 12 12 10 8 7 5 4 3 2 2 2 2 2 2 2 2 1 1 1 1 1 1 1 1 0 0 0 0 0 0 0 0 0
7 8 11 12 11 11 13 13 12 12 13 13 11 10 8 6 4 3 3 2 2 2 2 2 2 2 2 1 1 1 1 1 0 0 0 0 0 0 0 0 0 0 0
6 6 7 8 9 9 10 10 10 11 13 13 12 11 11 8 6 4 4 3 2 2 3 3 2 2 2 1 1 1 0 0 0 0 0 0 0 0 0 0 0 0 0
6 5 5 6 7 7 7 7 8 10 11 11 9 10 11 10 8 6 4 4 3 3 4 3 3 2 1 1 0 0 0 0 0 0 0 0 0 0 0 0 0 0 0
6 5 4 4 5 6 6 6 6 7 7 7 6 7 9 9 8 6 5 4 4 4 4 4 3 2 1 0 0 0 0 0 0 0 0 0 0 0 0 0 0 0 0
6 5 4 3 4 5 5 5 5 5 5 5 5 5 6 6 5 4 4 4 4 4 4 3 2 1 1 1 0 0 0 0 0 0 0 0 0 0 0 0 0 0 0
6 5 3 3 3 3 3 4 4 4 5 5 5 5 4 4 3 3 3 4 4 3 3 2 1 1 1 1 1 0 0 0 0 0 0 0 0 0 0 0 0 0 0
5 4 2 2 2 2 2 2 3 4 5 5 5 4 3 3 2 2 3 3 3 3 2 1 1 1 1 1 1 0 0 0 0 0 0 0 0 0 0 0 0 0 0
3 3 2 2 2 2 2 2 2 3 3 4 4 4 3 2 2 2 2 3 3 2 1 1 0 0 1 1 1 1 0 0 0 0 0 0 0 0 0 0 0 0 0
2 2 2 2 2 2 3 2 2 1 2 2 2 2 2 2 2 2 2 2 2 1 1 0 0 0 0 1 1 1 0 0 0 0 0 0 0 0 0 0 0 0 0
1 2 2 2 2 2 2 2 1 1 1 1 1 1 1 1 1 1 1 1 1 1 0 0 0 0 0 0 0 0 0 0 0 0 0 0 0 0 0 0 0 0 0
2 2 2 2 1 2 2 2 1 1 1 0 0 0 0 1 1 1 1 1 1 1 1 0 0 0 0 0 0 0 0 0 0 0 0 0 0 0 0 0 0 0 0
2 2 3 3 1 1 1 1 1 1 0 0 0 0 0 0 0 0 0 0 0 0 1 0 0 0 0 0 0 0 0 0 0 0 0 0 0 0 0 0 0 0 0
1 2 3 3 2 1 1 1 1 1 0 0 0 0 0 0 0 0 0 0 0 0 0 0 0 0 0 0 0 0 0 0 0 0 0 0 0 0 0 0 0 0 0
1 1 2 3 3 1 1 1 0 0 0 0 0 0 0 0 0 0 0 0 0 0 0 0 0 0 0 0 0 0 0 0 0 0 0 0 0 0 0 0 0 0 0
1 1 2 3 3 2 1 0 0 0 0 0 0 0 0 0 0 0 0 0 0 0 0 0 0 0 0 0 0 0 0 0 0 0 0 0 0 0 0 0 0 0 0
1 1 2 3 3 2 1 0 0 0 0 0 0 0 0 0 0 0 0 0 0 0 0 0 0 0 0 0 0 0 0 0 0 0 0 0 0 0 0 0 0 0 0
1 2 3 3 3 2 1 0 0 0 0 0 0 0 0 0 0 0 0 0 0 0 0 0 0 0 0 0 0 0 0 0 0 0 0 0 0 0 0 0 0 0 0
1 2 3 4 3 2 1 1 0 0 0 0 0 0 0 0 0 0 0 0 0 0 0 0 0 0 0 0 0 0 0 0 0 0 0 0 0 0 0 0 0 0 0
1 2 3 4 3 2 1 1 0 0 0 0 0 0 0 0 0 0 0 0 0 0 0 0 0 0 0 0 0 0 0 0 0 0 0 0 0 0 0 0 0 0 0
Wind_Speed
5 6 7 8 7 6 6 5 5 3 3 3 3 3 2 2 2 2 3 3 3 3 3 1 1 1 1 1 1 1 0 0 0 1 2 3 3 2 2 2 2 2 3
4 5 6 6 7 6 6 5 4 3 3 2 2 2 3 2 2 1 1 2 2 2 2 2 1 1 1 0 1 1 1 0 0 1 0 2 4 3 2 1 1 2 1
7 7 7 6 5 5 5 5 5 5 4 3 2 2 2 1 1 1 1 1 2 2 2 2 2 1 1 1 1 1 2 1 1 1 2 1 2 3 3 2 1 1 1
5 6 7 6 6 5 4 4 4 3 3 3 4 5 3 2 2 1 1 0 1 1 1 1 2 1 1 1 1 1 1 2 1 1 1 2 2 1 3 3 2 2 2
7 6 7 7 6 5 4 4 4 3 2 3 5 5 3 2 1 1 1 1 1 0 1 1 1 1 1 1 0 0 1 1 2 2 1 1 1 2 2 3 3 3 2
6 6 5 5 5 5 4 4 4 3 2 3 4 5 5 4 3 2 1 1 1 1 0 1 1 1 0 0 1 1 1 1 1 1 2 2 2 2 2 2 2 3 3
6 6 6 5 5 6 5 5 4 3 2 3 3 4 5 5 5 4 3 2 1 1 1 1 1 1 1 1 1 1 1 1 1 2 2 2 3 2 2 2 2 2 2
4 5 6 6 6 6 6 6 6 4 3 3 3 3 3 3 3 3 3 3 2 2 1 1 1 1 1 1 0 0 1 1 1 2 2 2 2 2 2 2 2 1 2
3 3 4 5 5 5 6 6 6 4 3 3 3 2 3 3 3 3 2 2 1 2 1 1 1 1 1 1 0 1 1 1 1 2 2 2 2 2 2 2 3 3 2
3 3 4 4 4 4 4 5 5 4 3 3 3 2 2 3 3 2 3 2 1 1 1 1 1 1 0 0 0 1 1 0 1 1 2 2 2 2 2 2 2 3 3
4 3 2 3 3 3 3 3 3 3 2 2 2 2 2 2 2 2 2 2 2 1 1 1 1 1 0 0 0 1 1 1 1 1 1 2 2 1 1 1 1 2 2
3 3 2 2 3 3 3 3 2 2 2 2 2 2 2 2 2 2 2 2 2 1 1 1 0 0 0 0 0 1 1 1 1 2 2 2 2 2 2 1 1 1 1
3 3 3 3 3 3 3 3 2 2 2 2 2 2 2 2 2 2 1 2 2 1 1 1 1 1 1 1 1 1 1 1 1 1 1 2 1 2 2 2 1 1 1
5 4 3 2 2 3 3 3 2 2 3 2 2 3 2 2 2 1 1 1 2 2 1 1 1 1 1 1 1 1 1 1 1 1 1 2 2 2 2 1 1 1 1
5 5 4 3 2 2 2 2 2 3 3 3 2 1 1 1 2 1 1 1 2 2 2 2 1 1 1 1 1 1 1 1 2 2 2 2 2 2 2 1 1 1 1
4 4 4 3 3 2 2 2 2 2 2 3 2 1 2 2 2 2 2 2 1 1 2 1 1 1 0 1 1 1 1 1 1 2 3 2 2 3 2 2 2 2 2
4 3 3 3 3 3 3 3 2 2 3 3 2 2 2 2 1 2 2 2 1 2 1 1 1 0 1 1 2 2 1 1 2 2 2 2 2 3 2 2 2 2 2
4 4 3 2 2 2 2 3 2 3 3 3 2 2 3 2 2 2 1 1 1 2 1 1 0 0 1 1 1 2 1 1 1 1 1 1 2 2 2 1 2 2 2
4 4 3 3 2 2 3 3 2 2 2 2 2 2 2 2 1 2 1 1 1 1 1 1 1 0 2 2 1 2 1 1 2 2 1 0 1 3 3 2 2 2 3
3 3 3 3 2 2 2 3 2 2 2 2 2 2 3 3 2 1 1 1 1 1 1 1 1 1 2 2 1 1 1 1 1 2 2 1 1 2 2 1 1 2 3
3 4 4 3 3 3 3 3 2 2 2 2 3 2 2 3 2 1 1 1 1 0 0 1 1 1 2 2 2 0 1 1 0 1 2 2 3 3 2 1 2 3 3
3 3 4 3 2 3 4 3 3 3 2 3 2 2 2 2 2 1 1 0 1 1 1 1 2 2 2 2 2 2 1 1 1 2 2 3 5 5 5 3 3 4 3
3 3 4 3 2 3 4 4 3 3 3 3 3 2 2 1 1 2 1 0 0 1 1 1 1 2 2 2 3 3 2 2 1 2 5 6 7 5 4 5 6 3 1
3 3 4 4 3 3 3 3 3 3 4 3 2 2 2 1 1 1 1 1 1 1 1 1 1 2 2 2 2 1 1 1 2 2 4 6 6 4 4 5 4 2 2
3 3 4 5 4 3 3 3 3 3 3 3 2 2 2 2 1 0 1 2 3 4 4 3 3 3 3 4 4 2 1 1 2 2 2 2 3 4 3 3 3 3 2
4 3 4 4 4 3 3 3 3 4 4 3 2 2 1 1 1 1 2 3 3 5 5 6 5 4 5 5 5 5 4 4 3 1 1 3 3 4 4 4 4 3 3
Wind_Direction
171 154 144 142 139 140 135 139 145 158 153 151 162 168 170 166 168 168 163 163 161 148 146 155 139 136 158 194 178 174 181 256 95 37 328 310 291 276 261 250 250 244 232
146 146 141 148 149 150 144 139 139 145 176 181 183 174 165 169 176 165 141 148 145 144 148 138 145 147 144 199 187 130 120 280 122 131 10 330 331 331 313 301 272 272 259
157 158 152 151 146 148 152 156 164 166 177 173 145 113 91 82 100 111 145 176 149 143 136 141 145 159 142 180 186 158 154 219 279 168 165 181 255 304 307 301 302 308 290
155 160 158 157 155 158 158 162 164 158 168 161 142 143 146 149 170 163 158 152 71 101 114 133 135 128 121 134 210 175 182 169 228 276 225 205 192 217 300 309 304 305 284
156 162 164 165 159 156 161 161 148 140 155 150 146 143 135 144 114 90 85 46 5 12 115 120 117 121 118 123 127 286 199 180 197 209 228 253 245 213 218 280 304 312 287
152 158 154 151 157 159 151 145 140 149 162 147 139 143 152 149 129 119 166 225 261 296 221 132 126 126 118 176 227 236 247 231 220 219 206 206 220 228 219 245 272 279 279
155 158 158 161 162 167 163 153 149 161 169 160 156 160 165 163 165 178 186 181 206 239 243 171 165 162 204 225 222 237 261 246 234 228 225 223 225 212 207 220 253 268 284
154 166 170 166 167 171 167 157 165 171 170 174 176 173 172 164 165 176 167 176 192 207 208 192 206 211 218 231 234 257 260 254 251 249 234 235 242 228 213 202 199 267 292
140 162 168 167 171 170 168 168 171 171 176 178 167 160 170 161 158 160 163 172 194 203 196 210 230 242 226 215 198 234 257 268 271 259 252 249 249 242 235 219 196 192 234
149 160 172 181 181 165 153 155 167 175 179 170 162 155 167 164 160 149 154 170 190 205 212 241 242 251 268 276 200 252 264 284 278 257 255 264 262 261 253 238 224 202 198
172 175 176 174 161 141 136 144 152 147 153 160 152 148 157 155 143 148 168 177 179 196 202 220 211 190 215 252 359 286 289 289 288 289 276 278 274 274 274 255 236 224 198
161 157 142 112 117 122 130 137 144 139 152 158 150 149 141 142 159 182 187 166 165 185 175 156 131 131 64 23 359 303 306 288 288 297 297 295 296 287 269 259 248 238 221
143 123 113 113 121 134 136 137 146 145 140 130 136 138 147 155 175 192 184 166 158 135 100 110 108 83 56 21 353 316 313 317 291 284 289 296 309 289 273 257 250 250 247
145 135 128 127 128 134 147 148 148 139 135 128 129 150 170 175 179 169 146 152 148 139 121 110 98 93 70 43 9 3 359 359 343 317 300 298 290 277 275 259 244 238 228
152 151 150 144 135 136 156 151 141 132 130 127 134 164 166 151 148 135 127 134 138 133 125 105 77 69 80 56 17 351 351 352 340 326 317 300 306 294 271 253 222 202 201
166 161 153 148 146 160 162 143 142 144 137 138 150 151 127 129 141 153 142 137 134 121 111 105 90 54 40 40 5 4 1 331 318 314 314 309 323 334 327 291 240 212 203
167 169 168 169 175 177 173 167 169 154 142 141 139 126 120 112 144 157 134 149 154 131 124 98 75 20 300 326 343 346 347 312 302 295 303 320 344 336 336 340 325 305 268
165 167 163 167 190 173 154 149 137 142 143 141 143 147 138 129 137 135 125 147 147 142 143 148 139 360 308 320 332 349 11 350 320 300 282 304 330 340 346 359 357 331 320
168 168 168 162 163 159 152 135 131 138 138 147 157 160 151 131 112 136 141 150 135 126 137 189 192 224 296 306 331 11 17 1 340 337 353 26 342 343 4 22 358 338 326
138 146 142 130 145 164 145 135 148 154 172 176 173 167 151 137 140 166 170 145 133 163 191 254 249 219 254 275 306 16 78 25 345 343 345 350 340 334 5 19 337 313 302
149 144 139 148 175 170 150 148 157 190 192 166 153 150 151 155 160 164 164 133 122 95 339 297 298 267 241 252 258 263 118 174 316 322 315 304 313 320 318 303 254 257 274
144 150 148 163 175 157 151 162 194 206 166 144 146 155 171 177 160 160 185 144 120 86 335 323 318 302 276 256 251 251 234 207 199 261 277 287 299 302 299 294 279 286 294
160 166 163 168 171 166 158 176 209 186 157 150 164 180 192 202 185 177 187 209 157 156 244 237 259 288 298 293 269 263 263 267 250 263 271 286 299 304 299 287 291 295 275
173 174 164 164 181 194 178 186 189 168 148 150 163 174 172 196 203 196 196 196 217 223 228 220 238 261 281 284 282 277 287 299 298 296 296 304 310 309 292 294 294 270 238
185 173 175 177 186 189 186 185 172 150 146 158 165 168 168 169 187 248 238 220 233 213 204 217 212 209 243 248 234 218 239 248 266 307 323 334 329 326 318 307 293 282 270
181 176 181 180 183 183 187 194 178 156 151 156 164 171 169 173 182 198 324 314 263 259 240 227 217 228 227 226 237 241 240 243 245 258 299 301 297 292 291 292 291 280 263